Total_Precipitation_Accumulation
0.05 0.15 0.40 0.63 1.05 1.54 1.50 1.00 0.80 0.57 0.45 0.46 0.36 0.33 0.43 0.69 1.07 1.91 1.83 1.33 0.93 0.90 1.10 1.31 1.42 1.43 1.38 1.37 1.55 1.63 1.64 1.68 1.72 1.86 1.95 2.03 2.07 1.95 1.82 1.83 1.86 1.96 1.95 1.94 2.03 2.03 1.95 1.73 1.59
0.08 0.18 0.39 0.69 1.24 1.70 1.42 0.77 0.52 0.41 0.36 0.39 0.36 0.36 0.53 0.61 0.62 1.04 1.23 1.10 0.74 0.74 0.92 1.06 1.22 1.22 1.18 1.21 1.26 1.41 1.51 1.50 1.59 1.84 1.95 2.02 1.98 1.87 1.80 1.73 1.78 1.91 2.03 2.08 1.97 1.84 1.69 1.47 1.38
0.10 0.19 0.38 0.69 1.04 1.22 1.03 0.62 0.40 0.33 0.37 0.50 0.52 0.44 0.67 0.73 0.66 0.94 1.05 0.80 0.65 0.75 0.95 1.04 1.02 0.95 0.92 0.90 0.98 1.18 1.34 1.47 1.59 1.72 1.77 1.83 1.79 1.79 1.69 1.62 1.74 1.93 2.22 2.26 1.97 1.68 1.47 1.32 1.19
0.10 0.21 0.31 0.52 0.62 0.57 0.54 0.45 0.36 0.34 0.36 0.47 0.57 0.60 0.78 0.68 0.58 0.77 0.85 0.68 0.58 0.71 0.77 0.78 0.82 0.77 0.77 0.78 0.89 1.02 1.14 1.32 1.50 1.55 1.61 1.73 1.81 1.77 1.66 1.68 1.84 2.06 2.25 2.13 1.84 1.56 1.39 1.28 1.15
0.13 0.21 0.31 0.47 0.53 0.50 0.41 0.38 0.35 0.41 0.45 0.53 0.58 0.83 1.00 0.87 0.67 0.70 0.73 0.59 0.44 0.48 0.54 0.59 0.68 0.67 0.71 0.72 0.83 0.98 1.14 1.29 1.31 1.40 1.70 1.86 1.82 1.82 1.84 1.85 1.99 2.07 2.03 1.89 1.75 1.51 1.39 1.23 1.18
0.10 0.16 0.25 0.39 0.46 0.45 0.37 0.31 0.27 0.35 0.50 0.66 0.73 0.88 1.15 1.10 0.85 0.76 0.60 0.53 0.41 0.36 0.48 0.59 0.66 0.67 0.68 0.71 0.84 1.00 1.12 1.20 1.26 1.40 1.60 1.73 1.72 1.78 1.89 1.96 2.05 1.99 1.95 1.81 1.63 1.41 1.33 1.28 1.23
0.06 0.11 0.16 0.28 0.37 0.35 0.30 0.30 0.27 0.31 0.49 0.68 0.72 1.00 1.28 1.32 1.03 0.76 0.62 0.59 0.58 0.47 0.55 0.69 0.75 0.81 0.88 0.99 1.07 1.18 1.22 1.29 1.37 1.44 1.49 1.53 1.61 1.71 1.83 1.98 2.06 2.03 1.90 1.66 1.52 1.37 1.27 1.25 1.26
0.08 0.08 0.11 0.18 0.23 0.31 0.25 0.25 0.25 0.33 0.38 0.48 0.59 0.87 1.20 1.18 1.00 0.91 1.02 0.97 1.01 0.81 0.70 0.73 0.89 1.06 1.06 1.10 1.26 1.32 1.34 1.36 1.39 1.42 1.49 1.57 1.72 1.78 1.89 1.99 2.20 2.23 1.97 1.63 1.49 1.33 1.18 1.20 1.28
0.05 0.14 0.15 0.14 0.15 0.21 0.17 0.23 0.24 0.22 0.28 0.36 0.49 0.68 0.90 0.90 0.94 1.19 1.46 1.30 1.33 1.16 0.92 0.80 0.77 0.94 1.11 1.14 1.19 1.34 1.39 1.44 1.52 1.68 1.77 1.91 2.07 2.02 2.26 2.36 2.57 2.55 2.23 1.92 1.71 1.51 1.36 1.27 1.27
0.03 0.12 0.11 0.08 0.07 0.11 0.14 0.19 0.20 0.25 0.47 0.72 0.85 0.90 0.99 1.24 1.31 1.45 1.53 1.42 1.39 1.36 1.17 1.03 0.93 0.90 1.01 1.04 1.28 1.62 1.59 1.69 1.87 2.18 2.27 2.48 2.58 2.56 2.25 2.69 3.01 2.97 2.78 2.46 2.32 2.13 1.78 1.50 1.44
0.02 0.07 0.07 0.07 0.05 0.06 0.10 0.11 0.16 0.27 0.62 0.99 1.23 1.31 1.35 1.57 1.80 1.84 1.89 1.89 1.78 1.68 1.43 1.20 1.14 1.16 1.14 1.31 1.34 1.59 1.90 2.15 2.24 2.31 2.40 2.61 2.54 2.40 2.38 2.74 2.93 2.92 2.83 2.77 2.88 2.69 2.23 2.17 2.28
0.01 0.02 0.03 0.05 0.03 0.04 0.06 0.08 0.17 0.39 0.79 0.96 1.20 1.39 1.44 1.82 1.91 1.91 2.34 2.43 2.01 1.71 1.64 1.54 1.48 1.47 1.55 1.45 1.59 1.62 1.75 1.99 2.20 2.38 2.40 2.53 2.82 2.79 2.74 2.89 2.81 2.92 2.95 3.23 3.04 3.14 2.90 2.60 2.36
0.01 0.01 0.02 0.03 0.03 0.03 0.05 0.09 0.18 0.38 0.62 0.73 0.94 1.12 1.16 1.65 1.96 2.19 2.68 2.65 2.36 2.15 2.04 1.89 1.87 1.95 1.96 1.95 1.96 1.76 1.84 2.01 2.19 2.39 2.59 2.60 2.76 2.86 2.88 2.95 2.93 2.59 2.58 2.84 3.10 3.00 3.10 3.09 2.86
0.01 0.02 0.04 0.04 0.04 0.04 0.05 0.12 0.23 0.44 0.59 0.82 0.83 0.99 1.22 1.61 1.89 2.30 2.63 2.89 2.75 2.49 2.32 2.17 2.14 2.25 2.34 2.33 2.37 2.27 2.05 2.22 2.23 2.49 2.57 2.65 2.72 2.88 3.07 3.15 3.07 2.65 2.52 2.76 2.96 2.86 3.18 3.13 3.08
0.02 0.06 0.09 0.08 0.06 0.07 0.08 0.27 0.49 0.58 0.71 0.88 1.01 1.11 1.33 1.70 2.18 2.44 2.70 3.01 3.05 2.97 2.80 2.58 2.47 2.63 2.85 2.95 2.89 2.69 2.49 2.33 2.38 2.52 2.60 2.70 2.68 2.92 2.94 2.91 2.90 2.84 2.67 2.83 2.92 2.93 3.08 2.95 2.82
0.05 0.07 0.13 0.14 0.10 0.10 0.17 0.59 0.72 0.60 0.78 0.98 1.07 1.30 1.61 1.99 2.43 2.92 3.08 2.99 3.02 3.16 3.12 2.82 2.60 3.04 3.40 3.45 3.41 3.15 2.88 2.57 2.51 2.59 2.70 2.79 2.86 2.97 3.11 2.84 2.73 2.99 2.92 3.03 3.31 3.23 3.33 3.45 3.32
0.08 0.12 0.14 0.18 0.13 0.13 0.26 0.74 0.72 0.54 0.66 0.85 1.08 1.32 1.74 2.26 2.62 2.79 2.85 3.04 3.19 3.30 3.26 3.18 3.28 3.39 3.53 3.61 3.71 3.46 3.21 2.98 2.73 2.67 2.69 2.78 2.90 2.99 3.33 3.21 3.22 3.16 3.14 3.18 2.84 3.41 3.72 3.78 3.62
0.09 0.10 0.16 0.18 0.16 0.19 0.29 0.56 0.64 0.64 0.79 0.92 1.22 1.44 1.59 1.98 2.43 2.54 2.66 3.14 3.24 3.44 3.56 3.49 3.60 3.74 4.01 4.19 4.36 3.98 3.58 3.28 3.00 2.83 2.88 2.92 3.12 3.23 3.52 3.42 3.39 3.27 3.38 3.38 3.38 3.82 3.78 3.53 3.53
0.04 0.09 0.17 0.19 0.17 0.23 0.33 0.54 0.74 0.83 0.98 1.28 1.48 1.48 1.46 1.75 2.24 2.60 2.87 3.07 3.42 3.63 3.81 3.81 4.03 4.44 4.76 4.60 4.26 4.06 3.78 3.54 3.30 3.04 2.93 2.96 2.94 3.12 3.48 3.36 3.64 3.52 3.38 3.34 3.31 3.60 3.69 3.44 3.62
0.03 0.08 0.17 0.20 0.19 0.30 0.44 0.67 0.84 1.04 1.27 1.36 1.28 1.28 1.42 1.80 2.30 2.67 2.94 3.11 3.38 3.66 4.09 4.23 4.42 4.78 4.91 4.75 4.60 4.42 4.27 3.87 3.72 3.55 3.35 2.98 2.79 2.88 2.97 3.30 3.13 3.22 3.36 3.31 3.43 3.68 3.56 3.20 3.65
0.05 0.09 0.15 0.17 0.24 0.40 0.52 0.94 1.12 1.28 1.40 1.39 1.32 1.51 1.52 1.60 2.03 2.31 2.43 2.62 2.81 2.97 3.23 3.52 4.01 4.53 4.71 4.77 4.67 4.60 4.62 4.14 3.84 3.68 3.47 3.06 2.77 2.68 2.86 3.03 3.11 3.16 3.06 3.19 3.44 3.49 3.54 3.42 3.51
0.07 0.08 0.08 0.13 0.24 0.51 0.60 1.20 1.41 1.61 1.72 1.58 1.51 1.43 1.39 1.63 1.98 1.99 1.83 1.98 2.24 2.25 2.57 2.99 3.45 3.81 4.04 4.12 4.11 4.13 4.09 3.98 3.87 3.72 3.31 3.02 2.76 2.67 2.75 2.88 2.97 3.01 2.86 3.02 2.87 3.02 3.49 3.60 3.40
0.06 0.06 0.09 0.14 0.26 0.48 0.52 0.89 1.42 1.80 1.98 1.60 1.50 1.36 1.41 1.64 1.69 1.64 1.65 1.75 1.93 2.09 2.42 2.73 3.06 3.36 3.52 3.61 3.67 3.77 3.66 3.67 3.55 3.36 3.12 2.89 2.70 2.54 2.33 2.43 2.70 2.79 2.70 2.67 2.70 2.97 3.10 3.07 3.07
0.05 0.09 0.17 0.26 0.46 0.82 0.66 0.79 1.34 1.74 1.60 1.39 1.32 1.11 1.21 1.40 1.49 1.54 1.63 1.75 1.88 2.18 2.54 2.83 3.07 3.29 3.36 3.14 3.04 3.04 3.08 3.15 3.09 2.92 2.73 2.49 2.37 2.22 2.03 2.09 2.39 2.51 2.54 2.53 2.51 2.59 2.67 2.72 2.75
0.09 0.19 0.63 1.06 1.39 1.25 0.76 0.88 1.48 1.39 1.04 0.97 1.06 1.04 1.03 1.07 1.21 1.33 1.52 1.72 1.90 2.02 2.12 2.56 2.99 3.16 3.07 2.81 2.62 2.54 2.66 2.77 2.68 2.54 2.48 2.35 2.15 2.00 1.97 2.00 2.14 2.20 2.24 2.23 2.32 2.40 2.43 2.59 2.69
0.14 0.25 0.73 1.03 1.12 1.09 0.84 1.25 1.77 1.37 0.93 0.78 0.89 0.88 0.78 0.73 0.70 0.80 0.98 1.09 1.25 1.30 1.33 1.50 1.78 2.02 2.10 2.00 2.02 2.06 2.10 2.17 2.16 2.32 2.18 2.15 2.03 1.89 1.91 1.83 1.81 1.89 1.93 1.92 2.25 2.30 2.44 2.60 2.68
0.24 0.29 0.31 0.53 0.74 1.10 1.10 1.31 1.42 1.18 0.92 0.88 0.96 0.87 0.69 0.65 0.61 0.67 0.78 0.83 0.94 0.97 1.01 1.16 1.41 1.64 1.69 1.70 1.75 1.79 1.80 1.83 1.86 1.92 1.87 1.82 1.86 1.78 1.76 1.73 1.84 1.82 1.88 2.01 2.22 2.25 2.33 2.58 2.62
0.21 0.29 0.44 0.71 0.95 1.11 1.18 1.53 1.69 1.52 1.26 1.10 1.05 0.92 0.71 0.58 0.56 0.63 0.74 0.78 0.89 1.01 1.16 1.28 1.39 1.50 1.50 1.50 1.51 1.46 1.55 1.56 1.61 1.60 1.54 1.54 1.62 1.62 1.61 1.63 1.71 1.76 1.79 1.90 2.14 2.17 2.25 2.39 2.43
0.23 0.31 0.48 0.66 0.72 0.95 1.32 1.47 1.24 1.21 1.19 1.26 1.20 1.00 0.76 0.58 0.53 0.59 0.71 0.77 0.85 0.98 1.12 1.27 1.35 1.45 1.42 1.38 1.45 1.51 1.51 1.54 1.51 1.48 1.40 1.47 1.54 1.57 1.57 1.62 1.71 1.76 1.79 1.91 2.06 2.05 2.18 2.19 2.19
0.22 0.33 0.49 0.74 0.79 0.83 1.00 1.16 0.77 0.80 0.92 1.01 0.99 0.79 0.62 0.55 0.53 0.62 0.73 0.79 0.93 1.00 1.07 1.10 1.19 1.32 1.34 1.36 1.48 1.67 1.64 1.63 1.60 1.45 1.39 1.45 1.46 1.49 1.52 1.61 1.69 1.67 1.76 1.95 2.04 2.03 2.18 2.24 2.21